TimeMST,TemperatureF,Dew PointF,Humidity,Sea Level PressureIn,VisibilityMPH,Wind Direction,Wind SpeedMPH,Gust SpeedMPH,PrecipitationIn,Events,Conditions,WindDirDegrees,DateUTC
12:15 AM,32.0,30.2,93,30.20,10.0,NW,15.0,-,N/A,,Overcast,310,2013-01-17 07:15:00
12:35 AM,33.8,30.2,87,30.21,10.0,NW,15.0,20.7,N/A,,Overcast,310,2013-01-17 07:35:00
12:55 AM,32.0,30.2,93,30.21,10.0,NW,11.5,-,N/A,,Overcast,310,2013-01-17 07:55:00
1:15 AM,32.0,30.2,93,30.21,10.0,NW,10.4,-,N/A,,Overcast,310,2013-01-17 08:15:00
1:35 AM,32.0,30.2,93,30.22,10.0,WNW,8.1,-,N/A,,Overcast,300,2013-01-17 08:35:00
1:55 AM,32.0,30.2,93,30.23,10.0,West,8.1,-,N/A,,Overcast,270,2013-01-17 08:55:00
2:35 AM,32.0,30.2,93,30.24,10.0,WNW,10.4,-,N/A,,Overcast,290,2013-01-17 09:35:00
2:55 AM,32.0,30.2,93,30.24,10.0,WNW,8.1,-,N/A,,Overcast,290,2013-01-17 09:55:00
3:15 AM,32.0,30.2,93,30.24,10.0,West,6.9,-,N/A,,Overcast,280,2013-01-17 10:15:00
3:35 AM,32.0,30.2,93,30.25,10.0,West,9.2,-,N/A,,Overcast,280,2013-01-17 10:35:00
3:55 AM,32.0,30.2,93,30.25,10.0,West,9.2,-,N/A,,Overcast,280,2013-01-17 10:55:00
4:15 AM,32.0,30.2,93,30.25,10.0,WNW,10.4,-,N/A,,Overcast,290,2013-01-17 11:15:00
4:35 AM,32.0,28.4,87,30.26,10.0,WNW,11.5,-,N/A,,Overcast,290,2013-01-17 11:35:00
5:15 AM,32.0,28.4,87,30.25,10.0,West,10.4,-,N/A,,Overcast,280,2013-01-17 12:15:00
5:35 AM,32.0,28.4,87,30.25,10.0,WNW,9.2,-,N/A,,Overcast,300,2013-01-17 12:35:00
5:55 AM,32.0,28.4,87,30.25,10.0,WNW,4.6,-,N/A,,Overcast,300,2013-01-17 12:55:00
6:15 AM,32.0,30.2,93,30.26,10.0,WNW,6.9,-,N/A,,Overcast,300,2013-01-17 13:15:00
6:35 AM,32.0,30.2,93,30.25,10.0,West,8.1,-,N/A,,Overcast,280,2013-01-17 13:35:00
6:55 AM,32.0,28.4,87,30.24,10.0,West,6.9,-,N/A,,Overcast,260,2013-01-17 13:55:00
7:15 AM,30.2,28.4,93,30.25,10.0,WSW,6.9,-,N/A,,Overcast,250,2013-01-17 14:15:00
7:35 AM,28.4,28.4,100,30.25,10.0,SW,5.8,-,N/A,,Overcast,230,2013-01-17 14:35:00
7:55 AM,28.4,26.6,93,30.25,10.0,WSW,8.1,-,N/A,,Overcast,240,2013-01-17 14:55:00
8:15 AM,28.4,26.6,93,30.26,10.0,WSW,6.9,-,N/A,,Overcast,250,2013-01-17 15:15:00
8:35 AM,28.4,26.6,93,30.26,10.0,SW,4.6,-,N/A,,Overcast,220,2013-01-17 15:35:00
8:55 AM,28.4,26.6,93,30.26,10.0,SW,4.6,-,N/A,,Overcast,220,2013-01-17 15:55:00
9:15 AM,28.4,26.6,93,30.26,10.0,SSW,3.5,-,N/A,,Mostly Cloudy,200,2013-01-17 16:15:00
9:35 AM,28.4,26.6,93,30.26,10.0,South,8.1,-,N/A,,Scattered Clouds,170,2013-01-17 16:35:00
9:55 AM,28.4,26.6,93,30.25,10.0,SSW,5.8,-,N/A,,Partly Cloudy,210,2013-01-17 16:55:00
10:15 AM,30.2,26.6,86,30.23,10.0,SSW,8.1,-,N/A,,Partly Cloudy,210,2013-01-17 17:15:00
10:35 AM,30.2,26.6,86,30.21,10.0,SSW,10.4,-,N/A,,Clear,200,2013-01-17 17:35:00
10:55 AM,32.0,26.6,80,30.20,10.0,SSW,9.2,-,N/A,,Clear,200,2013-01-17 17:55:00
11:15 AM,32.0,26.6,80,30.18,10.0,South,9.2,-,N/A,,Unknown,180,2013-01-17 18:15:00
11:35 AM,32.0,24.8,75,30.18,10.0,SSW,9.2,-,N/A,,Partly Cloudy,210,2013-01-17 18:35:00
11:55 AM,32.0,24.8,75,30.17,10.0,SSW,8.1,-,N/A,,Clear,200,2013-01-17 18:55:00
12:15 PM,32.0,24.8,75,30.16,10.0,South,5.8,-,N/A,,Clear,190,2013-01-17 19:15:00
12:35 PM,32.0,24.8,75,30.14,10.0,SSW,8.1,-,N/A,,Clear,200,2013-01-17 19:35:00
12:55 PM,33.8,26.6,75,30.12,10.0,SSW,11.5,-,N/A,,Clear,210,2013-01-17 19:55:00
1:15 PM,35.6,26.6,70,30.10,10.0,SW,12.7,17.3,N/A,,Clear,230,2013-01-17 20:15:00
1:35 PM,35.6,26.6,70,30.09,10.0,WSW,10.4,17.3,N/A,,Clear,240,2013-01-17 20:35:00
1:55 PM,35.6,26.6,70,30.08,10.0,SW,8.1,-,N/A,,Clear,230,2013-01-17 20:55:00
2:15 PM,35.6,26.6,70,30.07,10.0,SW,13.8,-,N/A,,Clear,230,2013-01-17 21:15:00
2:35 PM,37.4,26.6,65,30.06,10.0,SW,15.0,19.6,N/A,,Clear,230,2013-01-17 21:35:00
2:55 PM,37.4,26.6,65,30.06,10.0,WSW,12.7,19.6,N/A,,Clear,240,2013-01-17 21:55:00
3:55 PM,35.6,26.6,70,30.04,10.0,WSW,15.0,19.6,N/A,,Clear,240,2013-01-17 22:55:00
4:35 PM,35.6,26.6,70,30.03,10.0,WSW,16.1,25.3,N/A,,Clear,240,2013-01-17 23:35:00
5:35 PM,35.6,24.8,65,30.02,10.0,WSW,16.1,-,N/A,,Mostly Cloudy,250,2013-01-18 00:35:00
6:15 PM,35.6,24.8,65,30.01,10.0,WSW,13.8,-,N/A,,Clear,240,2013-01-18 01:15:00
6:55 PM,33.8,24.8,70,29.99,10.0,WSW,12.7,-,N/A,,Clear,240,2013-01-18 01:55:00
7:15 PM,33.8,24.8,70,29.98,10.0,WSW,12.7,-,N/A,,Clear,240,2013-01-18 02:15:00
7:55 PM,33.8,24.8,70,29.96,10.0,SW,11.5,17.3,N/A,,Clear,230,2013-01-18 02:55:00
8:15 PM,35.6,24.8,65,29.94,10.0,WSW,19.6,24.2,N/A,,Clear,240,2013-01-18 03:15:00
8:35 PM,35.6,24.8,65,29.93,10.0,SW,16.1,21.9,N/A,,Clear,230,2013-01-18 03:35:00
8:55 PM,35.6,23.0,60,29.92,10.0,SW,17.3,23.0,N/A,,Clear,230,2013-01-18 03:55:00
10:15 PM,35.6,24.8,65,29.87,10.0,SW,16.1,23.0,N/A,,Clear,230,2013-01-18 05:15:00
10:35 PM,35.6,24.8,65,29.86,10.0,WSW,19.6,26.5,N/A,,Clear,240,2013-01-18 05:35:00
10:55 PM,37.4,23.0,56,29.86,10.0,WSW,18.4,25.3,N/A,,Clear,240,2013-01-18 05:55:00
11:15 PM,35.6,24.8,65,29.86,10.0,WSW,17.3,-,N/A,,Clear,250,2013-01-18 06:15:00
11:35 PM,35.6,24.8,65,29.85,10.0,WSW,16.1,21.9,N/A,,Clear,240,2013-01-18 06:35:00
11:55 PM,33.8,23.0,65,29.85,10.0,WSW,12.7,-,N/A,,Clear,240,2013-01-18 06:55:00